Location: Observatoire du C�gep de Trois-Rivi�res � Champlain
(46.4753°N, 72.3231°W)
Time: 15:35:44
(UTC-05:00)

OTV 5 (USA 277) - Visible Passes

Search period start: 11 December 2017 00:00
Search period end: 21 December 2017 00:00
Orbit: 404 x 417 km, 43.0° (Epoch: 07 September)

Date Brightness Start Highest point End Pass type
(mag) Time Alt. Az. Time Alt. Az. Time Alt. Az.
11 Dec ? 16:42:27 10° WSW 16:45:42 46° S 16:48:57 10° ESE visible
11 Dec ? 18:19:44 10° W 18:22:39 28° SSW 18:22:39 28° SSW visible
12 Dec ? 17:28:37 10° W 17:31:43 34° SSW 17:34:15 14° SE visible
12 Dec ? 19:06:57 10° WSW 19:07:02 10° SW 19:07:02 10° SW visible
13 Dec ? 16:37:32 10° W 16:40:44 40° S 16:43:55 10° ESE visible
13 Dec ? 18:15:17 10° WSW 18:17:33 17° SSW 18:18:47 14° S visible
14 Dec ? 17:23:58 10° WSW 17:26:38 22° SSW 17:29:20 10° SSE visible
15 Dec ? 16:32:46 10° W 16:35:42 28° SSW 16:38:38 10° SE visible
16 Dec ? 17:20:00 10° WSW 17:21:27 12° SSW 17:22:54 10° S visible
